Regional Weather Roundup
Issued by NWS Spokane, WA

Home | Current Version | Previous Version | Text Only | Print | Product List | Glossary On
Versions: 1 2 3 4 5 6 7 8 9 10 11 12 13 14 15 16 17 18 19 20 21 22 23 24 25 26 27 28 29 30 31 32 33 34 35 36 37 38 39 40 41 42 43 44 45 46 47 48 49 50
533
NZUS01 KOTX 130105
RWROTX
EASTERN WASHINGTON/NORTHERN IDAHO ROUNDUP
NATIONAL WEATHER SERVICE, SPOKANE WA
500 PM PST FRI FEB 12 2016

Note: "fair" indicated few or no clouds below 12,000 feet with no
significant weather and/or obstructions to visibility.

...NORTHEAST WASHINGTON AND NORTHERN IDAHO PANHANDLE...

CITY           SKY/WX    TMP DP  RH WIND       PRES   REMARKS
SPOKANE INTL   CLOUDY    46  42  86 NW6       30.10R
SPOKANE DOWNTO CLOUDY    49  43  80 CALM      30.10S
COEUR D ALENE  CLOUDY    45  43  93 N6        30.07F
DEER PARK      CLOUDY    41  37  86 W8        30.11F
SANDPOINT      CLOUDY    39  39 100 CALM      30.11F FOG
BONNERS FERRY  CLOUDY    39  39 100 SE3       30.09F

...SOUTHEAST WASHINGTON AND SOUTHERN IDAHO PANHANDLE...

CITY           SKY/WX    TMP DP  RH WIND       PRES   REMARKS
WALLA WALLA    CLOUDY    50  45  83 SW8       30.16R
PULLMAN/MOSCOW CLOUDY    49  41  74 E6        30.12F
LEWISTON       CLOUDY    52  43  71 CALM      30.10F
LOWELL           N/A     45  41  86 CALM      30.14F

...COLUMBIA BASIN...

CITY           SKY/WX    TMP DP  RH WIND       PRES   REMARKS
EPHRATA        CLOUDY    42  39  89 CALM      30.12F
MOSES LAKE     LGT RAIN  44  42  93 SE10      30.11F FOG
TRI CITIES     LGT RAIN  48  43  82 NW6       30.18R
HERMISTON      CLOUDY    52  44  74 CALM      30.16R
PENDLETON      CLOUDY    49  44  83 SW7       30.16R

...EAST SLOPES CASCADES...

CITY           SKY/WX    TMP DP  RH WIND       PRES   REMARKS
THE DALLES     CLOUDY    50  45  83 NW5       30.18S
YAKIMA         CLOUDY    47  42  83 NW3       30.14F
ELLENSBURG     CLOUDY    39  35  86 NE6       30.12F FOG
WENATCHEE      CLOUDY    41  37  86 NE8       30.12R
OMAK           CLOUDY    37  35  92 SW12      30.11R

...SOUTHERN BRITISH COLUMBIA...

CITY           SKY/WX    TMP DP  RH WIND       PRES   REMARKS

...WESTERN MONTANA...

CITY           SKY/WX    TMP DP  RH WIND       PRES   REMARKS
MISSOULA       CLOUDY    40  36  86 NE5       30.12F

...NEIGHBORING CITIES...

CITY           SKY/WX    TMP DP  RH WIND       PRES   REMARKS
SEATTLE        PTCLDY    55  45  68 S9        30.14S
CALGARY        FOG       28  27  93 S12       29.91F VSB 5/8 WCI  18



USA.gov is the U.S. government's official web portal to all federal, state and local government web resources and services.